Radiation Dose measured at exhaust stack monitor of Miscellaneous Solid Waste Incinerator Building/Incinerator raregas monitor
Date,Time,Incinerator Gas Monitor(cps),Wind Direction,Wind Velocity(m/s)
2022/12/22,00:00,1.5,north-northwest,5.3
2022/12/22,00:10,1.5,north-northwest,5.0
2022/12/22,00:20,1.4,north-northwest,4.9
2022/12/22,00:30,1.5,north-northwest,6.0
2022/12/22,00:40,1.4,north-northwest,6.0
2022/12/22,00:50,1.5,north-northwest,6.0
2022/12/22,01:00,1.6,north-northwest,4.9
2022/12/22,01:10,1.5,north-northwest,5.3
2022/12/22,01:20,1.5,north-northwest,5.8
2022/12/22,01:30,1.6,north-northwest,5.8
2022/12/22,01:40,1.6,north-northwest,6.6
2022/12/22,01:50,1.5,north-northwest,5.8
2022/12/22,02:00,1.4,north-northwest,6.0
2022/12/22,02:10,1.6,north-northwest,5.5
2022/12/22,02:20,1.5,north-northwest,6.3
2022/12/22,02:30,1.4,north-northwest,6.3
2022/12/22,02:40,1.5,north-northwest,6.6
2022/12/22,02:50,1.5,north-northwest,6.0
2022/12/22,03:00,1.5,north-northwest,6.0
2022/12/22,03:10,1.5,north-northwest,6.3
2022/12/22,03:20,1.5,north-northwest,6.6
2022/12/22,03:30,1.4,north-northwest,7.5
2022/12/22,03:40,1.5,north-northwest,6.6
2022/12/22,03:50,1.4,north-northwest,7.1
2022/12/22,04:00,1.5,north-northwest,6.6
2022/12/22,04:10,1.5,north-northwest,7.1
2022/12/22,04:20,1.5,north-northwest,6.6
2022/12/22,04:30,1.5,north-northwest,7.4
2022/12/22,04:40,1.5,north-northwest,6.6
2022/12/22,04:50,1.6,north-northwest,6.3
2022/12/22,05:00,1.6,north-northwest,6.3
2022/12/22,05:10,1.6,north-northwest,6.6
2022/12/22,05:20,1.5,north-northwest,6.3
2022/12/22,05:30,1.5,north-northwest,6.6
2022/12/22,05:40,1.5,north-northwest,6.6
2022/12/22,05:50,1.5,north-northwest,7.1
2022/12/22,06:00,1.5,north-northwest,6.7
2022/12/22,06:10,1.5,north-northwest,7.4
2022/12/22,06:20,1.5,north-northwest,6.9
2022/12/22,06:30,1.5,north-northwest,7.5
2022/12/22,06:40,1.5,north-northwest,6.9
2022/12/22,06:50,1.5,north-northwest,7.4
2022/12/22,07:00,1.6,north-northwest,7.7
2022/12/22,07:10,1.5,north-northwest,7.7
2022/12/22,07:20,1.6,northwest,7.5
2022/12/22,07:30,1.6,northwest,6.9
2022/12/22,07:40,1.5,northwest,6.7
2022/12/22,07:50,1.5,northwest,6.4
2022/12/22,08:00,1.5,northwest,7.4
2022/12/22,08:10,1.6,north-northwest,7.1
2022/12/22,08:20,1.4,northwest,7.8
2022/12/22,08:30,1.5,north-northwest,6.3
2022/12/22,08:40,1.6,north-northwest,6.6
2022/12/22,08:50,1.5,north-northwest,6.9
2022/12/22,09:00,1.5,north-northwest,7.7
2022/12/22,09:10,1.5,north-northwest,8.0
2022/12/22,09:20,1.5,northwest,8.5
2022/12/22,09:30,1.4,north-northwest,8.3
2022/12/22,09:40,1.5,north-northwest,8.8
2022/12/22,09:50,1.5,northwest,8.6
2022/12/22,10:00,1.6,northwest,8.3
2022/12/22,10:10,1.5,northwest,9.4
2022/12/22,10:20,1.5,northwest,9.1
2022/12/22,10:30,1.6,northwest,8.6
2022/12/22,10:40,1.6,northwest,9.1
2022/12/22,10:50,1.5,north-northwest,9.1
2022/12/22,11:00,1.7,north-northwest,9.1
2022/12/22,11:10,1.4,north-northwest,9.4
2022/12/22,11:20,1.6,north-northwest,9.1
2022/12/22,11:30,1.5,northwest,8.6
2022/12/22,11:40,1.6,northwest,10.5
2022/12/22,11:50,1.6,northwest,10.8
2022/12/22,12:00,1.5,northwest,10.8
2022/12/22,12:10,1.5,northwest,8.0
2022/12/22,12:20,1.6,northwest,7.2
2022/12/22,12:30,1.6,northwest,9.1
2022/12/22,12:40,1.5,northwest,8.6
2022/12/22,12:50,1.5,north-northwest,8.6
2022/12/22,13:00,1.5,north-northwest,9.4
2022/12/22,13:10,1.6,north-northwest,9.4
2022/12/22,13:20,1.6,north-northwest,10.2
2022/12/22,13:30,1.5,northwest,8.5
2022/12/22,13:40,1.6,northwest,8.3
2022/12/22,13:50,1.5,northwest,7.1
2022/12/22,14:00,1.6,northwest,6.6
2022/12/22,14:10,1.5,northwest,5.3
2022/12/22,14:20,1.6,northwest,5.5
2022/12/22,14:30,1.5,northwest,5.5
2022/12/22,14:40,1.6,northwest,5.5
2022/12/22,14:50,1.6,north-northwest,6.0
2022/12/22,15:00,1.5,north-northwest,6.0
2022/12/22,15:10,1.5,northwest,7.7
2022/12/22,15:20,1.6,west-northwest,7.4
2022/12/22,15:30,1.5,northwest,7.1
2022/12/22,15:40,1.5,west-northwest,6.3
2022/12/22,15:50,1.5,west-northwest,7.5
2022/12/22,16:00,1.5,west-northwest,6.9
2022/12/22,16:10,1.6,west-northwest,7.7
2022/12/22,16:20,1.6,west-northwest,7.8
2022/12/22,16:30,1.5,west-northwest,7.7
2022/12/22,16:40,1.5,west-northwest,8.3
2022/12/22,16:50,1.5,west-northwest,9.4
2022/12/22,17:00,1.6,west,8.6
2022/12/22,17:10,1.5,west-northwest,8.3
2022/12/22,17:20,1.6,west-northwest,8.8
2022/12/22,17:30,1.6,west-northwest,7.1
2022/12/22,17:40,1.5,west,6.4
2022/12/22,17:50,1.5,west,5.6
2022/12/22,18:00,1.5,west-northwest,8.5
2022/12/22,18:10,1.6,west,10.2
2022/12/22,18:20,1.5,west,9.4
2022/12/22,18:30,1.4,west,9.7
2022/12/22,18:40,1.6,west,11.8
2022/12/22,18:50,1.5,west,9.7
2022/12/22,19:00,1.5,west-northwest,10.8
2022/12/22,19:10,1.6,west-northwest,8.9
2022/12/22,19:20,1.5,west-northwest,8.5
2022/12/22,19:30,1.6,west-northwest,10.0
2022/12/22,19:40,1.6,west-northwest,11.4
2022/12/22,19:50,1.6,west-northwest,11.1
2022/12/22,20:00,1.5,west-northwest,13.3
2022/12/22,20:10,1.6,west,11.4
2022/12/22,20:20,1.6,west,11.0
2022/12/22,20:30,1.6,west,11.3
2022/12/22,20:40,1.4,west,12.7
2022/12/22,20:50,1.5,west,11.2
2022/12/22,21:00,1.5,west,9.1
2022/12/22,21:10,1.6,west,11.9
2022/12/22,21:20,1.6,west,8.3
2022/12/22,21:30,1.5,west,8.5
2022/12/22,21:40,1.5,west,11.4
2022/12/22,21:50,1.5,west,12.8
2022/12/22,22:00,1.4,west,15.6
2022/12/22,22:10,1.6,west,11.6
2022/12/22,22:20,1.5,west,10.5
2022/12/22,22:30,1.6,west-northwest,6.9
2022/12/22,22:40,1.6,west-northwest,5.3
2022/12/22,22:50,1.5,northwest,4.9
2022/12/22,23:00,1.5,west-northwest,7.5
2022/12/22,23:10,1.5,west-northwest,7.1
2022/12/22,23:20,1.5,west-northwest,10.5
2022/12/22,23:30,1.5,west-northwest,10.4
2022/12/22,23:40,1.5,west-northwest,11.4
2022/12/22,23:50,1.5,west-northwest,9.9
